Regional Weather Roundup
Issued by NWS Newport/Morehead, NC

Home | Current Version | Previous Version | Text Only | Print | Product List | Glossary On
Versions: 1 2 3 4 5 6 7 8 9 10 11 12 13 14 15 16 17 18 19 20 21 22 23 24 25 26 27 28 29 30 31 32 33 34 35 36 37 38 39 40 41 42 43 44 45 46 47 48 49 50
000
ASUS42 KMHX 221825
RWRMHX
WEATHER ROUNDUP FOR EASTERN NORTH CAROLINA
NATIONAL WEATHER SERVICE NEWPORT/MOREHEAD CITY NC
200 PM EDT MON MAY 22 2017

NOTE: "FAIR" INDICATES FEW OR NO CLOUDS BELOW 12,000 FEET
WITH NO SIGNIFICANT WEATHER AND/OR OBSTRUCTIONS TO VISIBILITY

NCZ015>017-031-032-045>047-102-103-221900-
NORTH COAST

CITY           SKY/WX    TMP DP  RH WIND       PRES   REMARKS
EDENTON        PTSUNNY   84  70  62 S21       29.95F
ELIZABETH CITY PTSUNNY   82  69  64 SE13      29.96F
KITTY HAWK     NOT AVBL
MANTEO         PTSUNNY   78  71  80 S16G22    30.00F

$$

NCZ045>047-081-094-103-104-221900-
CENTRAL COAST

CITY           SKY/WX    TMP DP  RH WIND       PRES   REMARKS
FRISCO         MOSUNNY   83  70  64 S13       30.03F

$$

NCZ095-097-098-100-101-221900-
SOUTHERN COAST

CITY           SKY/WX    TMP DP  RH WIND       PRES   REMARKS
BEAUFORT       SUNNY     82  73  74 SW17G23   30.02F
CEDAR ISLAND   NOT AVBL
JACKSONVILLE   NOT AVBL
PINEY ISLAND   CLOUDY   N/A N/A N/A SW17G25   30.00F
WILMINGTON     PTSUNNY   79  74  84 SW8       30.01F THUNDER


$$

NCZ011>013-027>030-043-044-078>080-089-090>093-098-221900-
COASTAL PLAIN

CITY           SKY/WX    TMP DP  RH WIND       PRES   REMARKS
AHOSKIE          N/A     73  70  91 SW3       29.95F
CLINTON        MOSUNNY   85  68  56 W10       29.99F
ELIZABETHTOWN  MOSUNNY   84  69  59 S7        29.99F
GOLDSBORO      MOSUNNY   87  67  52 W16       29.97F
GREENVILLE     PTSUNNY   84  70  61 W9G21     29.98F
HAVELOCK       CLOUDY    85  69  58 SW13G23   30.00F
KENANSVILLE    PTSUNNY   84  70  61 SW12      29.98F
KINSTON        CLOUDY    86  68  54 SW14      29.98F
NEW BERN       PTSUNNY   82  70  66 SW13G21   30.00F
RICHLANDS      PTSUNNY   85  72  65 SW13      30.00F
ROCKY MOUNT    CLOUDY    75  67  76 W9G20     29.99F
WASHINGTON     MOSUNNY   82  68  62 SW15      29.97F
WHITEVILLE     MOSUNNY   85  68  57 SW3       30.00F

$$

AMZ130-135-150-152-154-156-158-170-250-252-270-ANZ085-086-088-633-658-670-221900-
MARINE OBSERVATIONS

STATION/POSITION TIME  TEMP    WIND        PRES    WAVE   SWELL
                       AIR SEA DIR/SP/G            HT/PER HT/PER
                 (UTC) (F)     (DEG/KT/KT) (MB)    (FT/S) (FT/S)
CHESAPEAKE LIGHT NOT AVBL
64 E VA BEACH    1750   71 68  170/ 12/ 14 1016.8    4/ 8   3/ 8
DUCK             1800   71 67  140/ 16/ 19 1014.7
2 E DUCK         1800      67                N/A     4/ 8
OREGON INLET     1800          150/ 14/ 19   N/A
13E OREGON INLT  1748      66                N/A     3/ 8   3/ 8
HATTERAS CG      1800   78 74  170/  8/ 12 1016.6
DIAMOND BUOY     1750   77 78  200/ 10/ 12 1017.4    4/ 8   3/ 8
CAPE LOOKOUT     1800   79     210/ 12/ 18 1016.4
BEAUFORT LAB     1800   79 75  210/ 12/ 19 1015.7
30 SE NEW RVR IN 1808   77 76  220/ 14/ 17 1016.9
30 SE NEW RVR IN 1743      76                N/A     4/ 4
27 SE WRIGHTSVLE 1808   76 76  200/ 14/ 19 1016.4
5 SE WRIGHTSVLE  1808   77 75  200/ 12/ 19 1016.4
225 S CAPE HAT   1750   75 78  260/  4/  6 1019.6    4/ 8   3/ 8
41 SE CHARLESTON 1810   78 78  200/ 10/ 12 1016.6

$$




USA.gov is the U.S. government's official web portal to all federal, state and local government web resources and services.